Torna al catalogo

STARLINK-30797

AttivoComunicazioniVLEO
NORAD 58154·PAYLOAD·🇺🇸 United States

Lanciato Oct 29, 2023 da Vandenberg Space Force Base

Loading…

Prossimi Passaggi (prossime 24 ore)

TLE

AggiornatoSource: CelesTrak SupGP

Epoca: Sep 14, 2026, 20:40 UTC

1 58154C 23166E   26257.86159722 -.00002088  00000+0 -61702-4 0  2579
2 58154  53.1598  59.9655 0001212  84.6834 246.4289 15.34379851    16

Traccia STARLINK-30797 in tempo reale con AllMySat

Download on the App Store